This demonstration page uses our WeatherBlox Daily Observations layout. Learn more.

Left ArrowRight Arrow

39.08367, -84.50855

Hourly Observations for December 6, 2019

Temp ( °F °C ) Dew Point ( °F °C ) Humidity (%) Winds ( mph kmh ) Pressure ( in mb ) Visibility ( mi km ) Precip ( " mm )
12:53 am 00:53 Clear 29 -1.7 28 -2.2 96 96 N N/A 30.09 1019 10 16 N/A
1:53 am 01:53 Clear 29 -1.7 28 -2.2 96 96 N N/A 30.08 1019 10 16 N/A
2:53 am 02:53 Mostly Clear 31 -0.6 30 -1.1 96 96 N N/A 30.08 1019 10 16 N/A
3:53 am 03:53 Mostly Cloudy 33 0.6 31 -0.6 92 92 N N/A 30.06 1018 10 16 N/A
4:53 am 04:53 Mostly Cloudy 34 1.1 32 undefined 92 92 N N/A 30.06 1018 10 16 N/A
5:53 am 05:53 Partly Cloudy 34 1.1 32 undefined 92 92 N N/A 30.06 1018 10 16 N/A
6:53 am 06:53 Cloudy 37 2.8 34 1.1 89 89 N N/A 30.08 1019 10 16 N/A
7:53 am 07:53 Cloudy with Light Rain 40 4.4 36 2.2 86 86 N N/A 30.08 1019 10 16 0.00 0.00
8:53 am 08:53 Cloudy with Light Rain 47 8.3 40 4.4 77 77 SW 8 13 30.10 1019 10 16 0.00 0.00
9:53 am 09:53 Cloudy with Light Rain 48 8.9 43 6.1 83 83 SSW 16 26 30.12 1020 10 16 0.00 0.00
10:53 am 10:53 Cloudy with Light Rain 47 8.3 43 6.1 86 86 SW 8 13 30.15 1021 10 16 0.01 0.25
11:53 am 11:53 Cloudy with Light Rain 48 8.9 44 6.7 86 86 N N/A 30.14 1021 10 16 0.02 0.51
12:53 pm 12:53 Cloudy with Light Rain 49 9.4 45 7.2 86 86 SW 3 6 30.14 1021 10 16 0.01 0.25
1:53 pm 13:53 Cloudy 49 9.4 45 7.2 86 86 W 3 6 30.13 1020 10 16 0.00 0.00
2:53 pm 14:53 Cloudy 49 9.4 45 7.2 86 86 W 3 6 30.14 1021 10 16 N/A
3:19 pm 15:19 Cloudy 48 8.9 41 5 77 77 N 9 15 30.16 1021 10 16 N/A
3:53 pm 15:53 Cloudy 47 8.3 39 3.9 74 74 N 14 22 30.19 1022 8 13 N/A
4:53 pm 16:53 Cloudy 45 7.2 38 3.3 77 77 N 14 22 30.22 1023 7 11 N/A
5:53 pm 17:53 Cloudy 45 7.2 36 2.2 71 71 N 10 17 30.26 1025 9 14 N/A
6:00 pm 18:00 Cloudy 44 6.7 36 2.2 73 73 N 9 15 30.26 1025 9 14 N/A
6:53 pm 18:53 Partly Cloudy 42 5.6 32 undefined 68 68 N 10 17 30.28 1026 10 16 N/A
7:53 pm 19:53 Clear 39 3.9 29 -1.7 67 67 N 10 17 30.32 1027 10 16 N/A
8:53 pm 20:53 Clear 37 2.8 28 -2.2 70 70 NNE 6 9 30.33 1027 10 16 N/A
9:53 pm 21:53 Clear 32 undefined 28 -2.2 85 85 N N/A 30.35 1028 10 16 N/A
10:53 pm 22:53 Clear 31 -0.6 28 -2.2 89 89 N N/A 30.37 1028 9 14 N/A
11:53 pm 23:53 Clear with Mist and Fog 28 -2.2 26 -3.3 92 92 N N/A 30.37 1029 6 10 N/A

Powered by AerisWeather